FW0810 Weather Reports


Display with metric or nautical units.
time (UTC)temp
F
wind
direction
speed
MPH
gust
MPH
rain 1hr
in
rain 24hr
in
rain mn
in
humidity
%
barometer
mb
20260506215733 63 89 0.0 0.0 0.00 0.01 0.01 83 1016.3
20260506215230 63 89 0.0 0.0 0.00 0.01 0.01 83 1016.2
20260506214730 63 89 0.0 2.0 0.00 0.01 0.01 83 1016.4
20260506213729 63 94 0.0 2.0 0.00 0.01 0.01 83 1016.2
20260506213228 63 94 0.0 2.0 0.00 0.01 0.01 83 1016.2
20260506212725 63 92 0.0 2.0 0.00 0.01 0.01 82 1016.3
20260506211723 63 124 0.0 0.0 0.00 0.01 0.01 82 1016.3
20260506211219 63 126 1.0 6.0 0.00 0.01 0.01 82 1016.4
20260506210217 63 71 0.0 0.0 0.00 0.01 0.01 82 1016.3
20260506205714 63 46 0.0 2.0 0.00 0.01 0.01 82 1016.3
20260506205214 63 314 0.0 2.0 0.00 0.01 0.01 82 1016.3
20260506204714 63 96 0.0 0.0 0.00 0.01 0.01 82 1016.3
20260506204211 63 96 0.0 2.0 0.00 0.01 0.01 82 1016.3
20260506203709 63 89 0.0 2.0 0.00 0.01 0.01 82 1016.2
20260506203209 63 145 0.0 0.0 0.00 0.01 0.01 82 1016.2
20260506201706 64 152 0.0 0.0 0.00 0.01 0.01 81 1016.2
20260506201204 64 152 0.0 2.0 0.00 0.01 0.01 81 1016.2
20260506200158 64 150 0.0 0.0 0.00 0.01 0.01 80 1016.2
20260506195701 64 144 0.0 0.0 0.00 0.01 0.01 80 1016.1
20260506195155 64 144 0.0 3.0 0.00 0.01 0.01 80 1016.0
20260506194644 64 139 1.0 4.0 0.00 0.01 0.01 80 1016.0
20260506194140 64 138 1.0 4.0 0.00 0.01 0.01 80 1015.8
20260506193633 64 169 0.0 3.0 0.00 0.01 0.01 80 1015.7
20260506193126 64 160 0.0 3.0 0.00 0.01 0.01 79 1015.6
20260506192620 64 163 1.0 6.0 0.00 0.01 0.01 79 1015.6
20260506192115 64 160 1.0 6.0 0.00 0.01 0.01 79 1015.6
20260506191609 64 199 1.0 5.0 0.00 0.01 0.01 79 1015.6
20260506191118 64 139 1.0 6.0 0.00 0.01 0.01 78 1015.6
20260506190104 64 140 0.0 3.0 0.00 0.01 0.01 77 1015.4
20260506185545 64 140 1.0 4.0 0.00 0.01 0.01 77 1015.3
20260506185040 64 155 2.0 9.0 0.00 0.01 0.01 77 1015.2
20260506184027 64 158 1.0 6.0 0.00 0.01 0.01 77 1014.9
20260506183520 64 155 1.0 5.0 0.00 0.01 0.01 77 1014.9
20260506183015 64 188 1.0 7.0 0.00 0.01 0.01 76 1015.0
20260506182508 64 304 0.0 7.0 0.00 0.01 0.01 76 1015.1
20260506182003 65 179 0.0 4.0 0.00 0.01 0.01 75 1015.1
20260506181501 65 293 0.0 3.0 0.00 0.01 0.01 75 1015.2
20260506181002 65 107 0.0 3.0 0.00 0.01 0.01 75 1015.1
20260506180500 65 147 0.0 4.0 0.00 0.01 0.01 75 1015.1
20260506175458 65 198 1.0 5.0 0.00 0.01 0.01 75 1015.2
20260506174958 65 281 1.0 5.0 0.00 0.01 0.01 74 1015.1
20260506174457 65 195 1.0 7.0 0.00 0.01 0.01 74 1015.1
20260506173956 65 146 1.0 7.0 0.00 0.01 0.01 74 1015.0
20260506173456 65 193 2.0 10.0 0.00 0.01 0.01 74 1015.1
20260506172954 65 290 1.0 10.0 0.00 0.01 0.01 74 1015.1
20260506172454 65 162 1.0 8.0 0.00 0.01 0.01 74 1014.9
20260506171454 65 287 1.0 6.0 0.00 0.01 0.01 74 1014.9
20260506170950 65 156 1.0 6.0 0.00 0.01 0.01 74 1014.9
20260506165951 66 238 1.0 8.0 0.00 0.01 0.01 74 1014.9
20260506165453 66 164 1.0 4.0 0.00 0.01 0.01 74 1014.9
20260506164951 66 202 2.0 7.0 0.00 0.01 0.01 75 1014.9
20260506164448 66 275 1.0 7.0 0.00 0.01 0.01 75 1014.8
20260506163939 66 274 1.0 6.0 0.00 0.01 0.01 75 1014.8
20260506163433 67 172 1.0 6.0 0.00 0.01 0.01 76 1014.8
20260506162926 67 231 1.0 6.0 0.00 0.01 0.01 75 1014.9
20260506162434 67 184 1.0 5.0 0.00 0.01 0.01 76 1015.0
20260506161914 67 143 0.0 5.0 0.00 0.01 0.01 75 1015.0
20260506161411 67 164 0.0 5.0 0.00 0.01 0.01 75 1014.9
20260506160917 67 221 1.0 5.0 0.00 0.01 0.01 75 1014.9
20260506160358 67 186 1.0 5.0 0.00 0.01 0.01 75 1015.0
20260506155850 67 332 2.0 11.0 0.00 0.01 0.01 74 1015.1
20260506155345 67 295 2.0 11.0 0.00 0.01 0.01 74 1014.9
20260506154839 67 279 1.0 9.0 0.00 0.01 0.01 74 1015.1
20260506154332 67 273 2.0 9.0 0.00 0.01 0.01 74 1014.9
20260506153320 67 199 2.0 11.0 0.00 0.01 0.01 73 1014.9
20260506152308 67 254 2.0 6.0 0.00 0.01 0.01 74 1014.9
20260506151807 67 188 2.0 11.0 0.00 0.01 0.01 74 1014.9
20260506151306 67 207 2.0 11.0 0.00 0.01 0.01 75 1014.9
20260506150806 67 139 2.0 11.0 0.00 0.01 0.01 75 1015.0
20260506150306 67 295 2.0 17.0 0.00 0.01 0.01 75 1014.9
20260506145805 67 191 2.0 17.0 0.00 0.01 0.01 75 1014.9
20260506144805 67 269 2.0 10.0 0.00 0.02 0.01 78 1015.0
20260506144304 66 245 3.0 10.0 0.00 0.02 0.01 78 1015.0
20260506143804 67 340 2.0 9.0 0.00 0.02 0.01 78 1015.0
20260506143305 67 287 0.0 6.0 0.00 0.02 0.01 77 1014.9
20260506142806 67 272 0.0 7.0 0.00 0.02 0.01 77 1015.0
20260506142305 67 168 0.0 7.0 0.00 0.02 0.01 75 1014.9
20260506141802 67 163 0.0 4.0 0.00 0.02 0.01 75 1014.9
20260506141300 68 161 1.0 11.0 0.00 0.02 0.01 74 1014.9
20260506140800 68 275 2.0 11.0 0.00 0.02 0.01 72 1014.8
20260506140300 68 132 1.0 8.0 0.00 0.02 0.01 71 1014.8
20260506135754 68 178 1.0 6.0 0.00 0.02 0.01 71 1014.9
20260506135254 68 252 2.0 10.0 0.00 0.02 0.01 70 1014.7
20260506134755 68 166 3.0 10.0 0.00 0.02 0.01 70 1014.8
20260506133753 68 186 1.0 6.0 0.00 0.02 0.01 68 1015.0
20260506133252 68 148 0.0 4.0 0.00 0.02 0.01 67 1015.2
20260506132752 68 245 0.0 4.0 0.00 0.02 0.01 67 1015.2
20260506132252 68 201 0.0 5.0 0.00 0.02 0.01 66 1015.2
20260506131752 68 268 0.0 5.0 0.00 0.02 0.01 65 1015.2
20260506131253 68 174 1.0 5.0 0.00 0.02 0.01 65 1015.4
20260506125745 69 156 1.0 6.0 0.00 0.02 0.01 63 1015.5
20260506124746 69 150 2.0 10.0 0.00 0.02 0.01 62 1015.6
20260506124246 69 101 2.0 10.0 0.00 0.02 0.01 62 1015.6
20260506123747 70 173 2.0 8.0 0.00 0.02 0.01 61 1015.6
20260506123247 70 199 2.0 8.0 0.00 0.02 0.01 61 1015.5
20260506122746 71 169 1.0 6.0 0.00 0.02 0.01 60 1015.5
20260506121246 71 142 2.0 10.0 0.00 0.02 0.01 60 1015.2
20260506120247 71 156 3.0 14.0 0.00 0.02 0.01 58 1015.2
20260506115745 71 143 3.0 14.0 0.00 0.02 0.01 58 1015.1
20260506114244 71 156 2.0 12.0 0.00 0.02 0.01 59 1015.1
20260506113745 71 158 3.0 12.0 0.00 0.02 0.01 59 1015.1
20260506112239 71 340 2.0 13.0 0.00 0.02 0.01 58 1015.1
20260506111742 71 45 2.0 8.0 0.00 0.02 0.01 60 1015.1
20260506111241 71 171 2.0 14.0 0.00 0.02 0.01 60 1015.2
20260506110737 71 166 3.0 14.0 0.00 0.02 0.01 59 1015.3
20260506110237 70 200 2.0 14.0 0.00 0.02 0.01 60 1015.3
20260506105736 70 124 3.0 14.0 0.00 0.02 0.01 60 1015.4
20260506105236 70 255 3.0 12.0 0.00 0.02 0.01 58 1015.6
20260506104736 70 308 2.0 14.0 0.00 0.02 0.01 58 1015.4
20260506104234 70 252 2.0 14.0 0.00 0.02 0.01 58 1015.5
20260506103734 70 78 1.0 5.0 0.00 0.02 0.01 60 1015.4
20260506103234 69 174 2.0 15.0 0.00 0.02 0.01 59 1015.6
20260506102734 70 193 2.0 15.0 0.00 0.02 0.01 56 1015.5
20260506102228 70 143 0.0 5.0 0.00 0.02 0.01 60 1015.4
20260506100720 69 271 2.0 12.0 0.00 0.02 0.01 59 1015.6
20260506100234 69 252 2.0 12.0 0.00 0.02 0.01 59 1015.7
20260506095719 69 84 0.0 10.0 0.00 0.02 0.01 58 1015.5
20260506095220 69 86 0.0 4.0 0.00 0.02 0.01 60 1015.4
20260506094720 69 71 1.0 4.0 0.00 0.02 0.01 61 1015.2
20260506094220 69 93 1.0 5.0 0.00 0.02 0.01 63 1015.3
20260506093722 69 121 1.0 7.0 0.00 0.02 0.01 61 1015.2
20260506093221 69 347 1.0 7.0 0.00 0.02 0.01 60 1015.4
20260506092720 69 96 1.0 3.0 0.00 0.02 0.01 61 1015.4
20260506092217 69 309 1.0 6.0 0.00 0.02 0.01 62 1015.4
20260506091717 69 92 1.0 6.0 0.00 0.02 0.01 62 1015.3
20260506091217 69 44 0.0 4.0 0.00 0.02 0.01 64 1015.3
20260506090720 68 96 1.0 8.0 0.00 0.02 0.01 65 1015.3
20260506090217 67 223 2.0 9.0 0.00 0.02 0.01 65 1015.3
20260506085718 67 162 3.0 9.0 0.00 0.02 0.01 66 1015.3
20260506085217 67 15 2.0 11.0 0.00 0.02 0.01 65 1015.4
20260506084205 66 127 1.0 6.0 0.00 0.02 0.01 68 1015.4
20260506083659 66 78 2.0 10.0 0.00 0.02 0.01 69 1015.4
20260506083153 65 82 3.0 10.0 0.00 0.02 0.01 70 1015.4
20260506082646 65 126 2.0 8.0 0.00 0.02 0.01 70 1015.3
20260506082141 65 92 2.0 7.0 0.00 0.02 0.01 70 1015.4
20260506081635 65 109 2.0 11.0 0.00 0.02 0.01 72 1015.3
20260506081131 64 129 2.0 11.0 0.00 0.02 0.01 72 1015.4
20260506080623 64 276 1.0 9.0 0.00 0.02 0.01 71 1015.5
20260506080131 64 38 1.0 5.0 0.00 0.02 0.01 71 1015.5
20260506072536 63 89 3.0 10.0 0.00 0.02 0.01 73 1015.3
20260506072031 64 53 3.0 10.0 0.00 0.02 0.01 73 1015.3
20260506071032 63 105 2.0 7.0 0.00 0.02 0.01 75 1015.3
20260506070531 62 195 1.0 9.0 0.00 0.02 0.01 77 1015.5
20260506061530 60 101 1.0 5.0 0.00 0.02 0.01 80 1015.7
20260506061033 60 101 1.0 5.0 0.00 0.02 0.01 79 1015.7
20260506060531 60 82 0.0 0.0 0.00 0.02 0.01 80 1015.7
20260506051010 60 210 1.0 4.0 0.00 0.02 0.01 80 1015.8
20260506050512 60 91 1.0 4.0 0.00 0.02 0.01 79 1015.6
20260506045015 60 80 0.0 4.0 0.00 0.02 0.01 79 1015.6
20260506044507 60 88 0.0 4.0 0.00 0.02 0.01 79 1015.6
20260506043005 60 92 0.0 5.0 0.00 0.03 0.01 79 1015.8
20260506042001 60 93 0.0 3.0 0.00 0.03 0.01 80 1015.6
20260506040458 60 117 0.0 0.0 0.00 0.04 0.01 79 1015.5
20260506035957 60 117 0.0 2.0 0.00 0.05 0.01 78 1015.4
20260506035458 60 126 1.0 4.0 0.00 0.05 0.01 77 1015.4
20260506034457 60 77 0.0 4.0 0.00 0.06 0.01 79 1015.3
20260506033954 60 76 0.0 6.0 0.00 0.06 0.01 78 1015.6
20260506033452 60 94 0.0 6.0 0.00 0.06 0.01 79 1015.6
20260506032951 60 89 0.0 3.0 0.00 0.06 0.01 79 1015.6
20260506032453 60 79 1.0 4.0 0.00 0.06 0.01 80 1015.6
20260506031434 60 58 1.0 6.0 0.01 0.07 0.01 80 1015.5
20260506030930 60 101 1.0 6.0 0.01 0.07 0.01 81 1015.7
20260506025931 60 83 0.0 5.0 0.01 0.07 0.01 82 1015.7
20260506025433 60 73 0.0 2.0 0.01 0.07 0.01 83 1015.6
20260506024931 60 91 0.0 4.0 0.01 0.08 0.01 82 1015.7
20260506024433 61 92 0.0 4.0 0.01 0.08 0.01 82 1015.7
20260506023932 61 53 0.0 0.0 0.01 0.08 0.01 82 1015.7
20260506023433 61 53 0.0 0.0 0.01 0.08 0.01 81 1016.0
20260506022433 61 53 0.0 4.0 0.01 0.08 0.01 79 1016.1
20260506021931 61 108 0.0 4.0 0.00 0.07 0.00 80 1016.0
20260506021432 62 88 1.0 4.0 0.00 0.07 0.00 80 1016.1
20260506020433 62 121 0.0 0.0 0.00 0.07 0.00 80 1016.3
20260506015430 62 122 0.0 0.0 0.00 0.07 0.00 81 1016.4
20260506014930 62 122 0.0 0.0 0.00 0.07 0.00 81 1016.3
20260506014430 62 124 0.0 1.0 0.00 0.07 0.00 81 1016.4
20260506013930 62 124 0.0 1.0 0.00 0.07 0.00 81 1016.4
20260506013430 62 72 0.0 2.0 0.00 0.07 0.00 82 1016.3
20260506012932 62 72 0.0 2.0 0.00 0.07 0.00 82 1016.2
20260506012430 62 72 0.0 2.0 0.00 0.07 0.00 82 1016.2
20260506011928 62 52 0.0 2.0 0.00 0.07 0.00 82 1016.2
20260506011430 62 105 0.0 1.0 0.00 0.07 0.00 83 1016.2
20260506010927 62 110 0.0 3.0 0.00 0.07 0.00 83 1016.3
20260506010427 62 110 0.0 3.0 0.00 0.07 0.00 82 1016.4
20260506005923 62 90 0.0 2.0 0.00 0.07 0.00 83 1016.3
20260506005425 62 91 0.0 3.0 0.00 0.07 0.00 83 1016.3
20260506004923 62 90 1.0 5.0 0.00 0.07 0.00 83 1016.3
20260506004420 62 86 1.0 6.0 0.00 0.07 0.00 83 1016.2
20260506003913 62 89 1.0 6.0 0.00 0.07 0.00 83 1016.2
20260506003408 62 79 0.0 5.0 0.00 0.07 0.00 83 1016.3
20260506002902 62 88 0.0 3.0 0.00 0.07 0.00 83 1016.4
20260506002356 62 90 0.0 3.0 0.00 0.07 0.00 84 1016.4
20260506001852 62 91 0.0 3.0 0.00 0.07 0.00 84 1016.4
20260506001345 62 92 0.0 4.0 0.00 0.07 0.00 84 1016.5
20260506000335 62 112 0.0 0.0 0.00 0.07 0.00 84 1016.6
20260505235828 62 112 0.0 0.0 0.00 0.07 0.00 84 1016.6
20260505235320 62 111 0.0 3.0 0.00 0.07 0.00 84 1016.7
20260505234328 62 124 0.0 1.0 0.00 0.07 0.00 83 1016.8
20260505233815 62 126 0.0 4.0 0.00 0.07 0.00 83 1016.8
20260505233311 62 134 0.0 4.0 0.00 0.07 0.00 83 1016.8
20260505232808 62 117 0.0 3.0 0.00 0.07 0.00 83 1016.8
20260505232308 62 112 0.0 3.0 0.00 0.07 0.00 83 1016.8
20260505231306 62 102 0.0 2.0 0.00 0.07 0.00 83 1016.9
20260505230804 62 103 0.0 4.0 0.00 0.07 0.00 83 1017.0
20260505230304 62 103 1.0 4.0 0.00 0.07 0.00 82 1017.1
20260505225805 62 172 0.0 4.0 0.00 0.07 0.00 82 1017.1
20260505225318 62 131 0.0 1.0 0.00 0.07 0.00 83 1017.1
20260505224810 62 138 0.0 2.0 0.00 0.07 0.00 83 1017.1
20260505224302 62 182 0.0 3.0 0.00 0.07 0.00 82 1017.2
20260505223800 62 127 0.0 3.0 0.00 0.07 0.00 82 1017.2
20260505223301 62 153 0.0 3.0 0.00 0.07 0.00 82 1017.3
20260505222259 62 142 0.0 1.0 0.00 0.07 0.00 82 1017.3
20260505221759 62 142 0.0 4.0 0.00 0.07 0.00 82 1017.3
20260505221256 62 139 0.0 4.0 0.00 0.07 0.00 82 1017.3
20260505220757 62 192 0.0 2.0 0.00 0.07 0.00 82 1017.3
20260505220258 63 192 0.0 4.0 0.00 0.07 0.00 82 1017.4